EDT,Max TemperatureF,Mean TemperatureF,Min TemperatureF,Max Dew PointF,MeanDew PointF,Min DewpointF,Max Humidity, Mean Humidity, Min Humidity, Max Sea Level PressureIn, Mean Sea Level PressureIn, Min Sea Level PressureIn, Max VisibilityMiles, Mean VisibilityMiles, Min VisibilityMiles, Max Wind SpeedMPH, Mean Wind SpeedMPH, Max Gust SpeedMPH,PrecipitationIn, CloudCover, Events, WindDirDegrees
2013-6-1,83,75,66,65,64,62,87,71,54,30.17,30.10,30.01,10,10,9,13,5,16,T,6,,155
2013-6-2,84,76,67,70,66,63,93,79,65,30.04,29.97,29.90,10,9,2,24,5,36,0.39,6,Rain-Thunderstorm,173
2013-6-3,84,75,66,67,65,60,100,74,47,30.00,29.95,29.87,10,6,0,13,4,16,0.00,6,Fog,288
2013-6-4,86,76,65,66,62,57,87,64,40,30.03,29.99,29.94,10,10,10,9,4,13,0.00,2,,356
2013-6-5,83,75,67,69,67,64,93,76,58,30.10,30.03,29.94,10,8,2,16,7,24,0.49,6,Rain-Thunderstorm,88
2013-6-6,75,70,64,68,65,62,93,86,79,29.99,29.89,29.79,10,8,2,13,5,16,0.01,7,Rain,106
2013-6-7,84,75,66,68,65,64,93,74,55,29.89,29.78,29.70,10,8,2,18,7,25,0.18,6,Rain-Thunderstorm,271
2013-6-8,82,73,63,66,63,61,93,72,51,30.09,29.99,29.86,10,8,4,13,6,15,0.01,3,,262
2013-6-9,83,76,69,70,68,66,97,78,58,30.12,30.08,30.03,10,6,0,14,4,20,1.62,6,Fog-Rain-Thunderstorm,164
2013-6-10,77,71,64,69,66,61,97,83,69,30.11,30.04,29.95,10,8,1,25,7,31,0.46,7,Rain,214
2013-6-11,88,80,71,70,69,66,93,72,50,30.09,30.02,29.97,10,9,2,21,9,26,0.10,5,Rain,265
2013-6-12,92,82,71,73,70,66,93,72,50,30.12,30.02,29.97,10,6,0,14,5,25,0.00,0,,275
2013-6-13,90,80,69,73,69,66,93,72,50,29.97,29.88,29.75,10,5,0,35,11,56,0.49,2,Rain-Thunderstorm,276
2013-6-14,85,76,66,70,60,54,97,67,37,30.02,29.92,29.83,10,8,0,17,4,31,0.00,1,,115
2013-6-15,84,74,64,59,57,55,73,57,40,30.15,30.10,30.04,10,10,10,9,4,13,0.00,1,,111
2013-6-16,86,75,64,70,64,56,93,72,51,30.17,30.10,30.04,10,10,7,17,3,23,0.65,3,Rain-Thunderstorm,182
2013-6-17,83,75,67,70,67,64,93,80,67,30.14,30.06,29.97,10,8,1,14,4,18,0.46,6,Rain-Thunderstorm,249
2013-6-18,82,76,69,71,68,66,97,84,71,30.02,29.95,29.85,10,6,1,18,8,24,0.72,6,Rain-Thunderstorm,237
2013-6-19,73,71,69,67,66,63,90,79,68,30.14,30.02,29.91,10,10,10,7,3,,T,6,Rain,71
2013-6-20,82,77,71,66,64,62,73,62,51,30.25,30.21,30.14,10,10,10,12,7,30,0.00,3,,87
2013-6-21,84,76,67,63,62,60,87,67,47,30.26,30.21,30.17,10,10,10,5,5,6,0.00,2,,84
2013-6-22,83,75,66,64,62,59,87,67,46,30.24,30.18,30.12,10,10,8,8,4,22,0.00,1,,88
2013-6-23,84,76,67,69,65,61,87,71,55,30.26,30.17,30.12,10,10,9,9,3,13,0.00,4,,130
2013-6-24,85,77,69,72,67,64,97,76,55,30.28,30.20,30.12,10,9,2,5,4,5,0.01,4,Rain-Thunderstorm,243
2013-6-25,86,77,68,70,67,64,90,73,55,30.22,30.13,30.05,10,9,1,22,4,30,0.19,4,Rain-Thunderstorm,292
2013-6-26,87,79,71,72,69,68,93,75,57,30.13,30.03,29.95,10,10,10,7,6,16,0.00,2,Thunderstorm,255
2013-6-27,86,80,74,72,70,68,87,73,59,30.02,29.91,29.82,10,10,9,16,10,30,T,2,Thunderstorm,264
2013-6-28,91,81,70,72,69,64,93,67,41,29.86,29.76,29.68,10,8,1,40,8,55,0.59,2,Rain-Thunderstorm,256
2013-6-29,86,77,68,68,64,59,90,67,43,29.75,29.71,29.67,10,10,7,15,7,22,0.00,2,,262
2013-6-30,85,76,66,68,65,59,90,67,44,29.86,29.76,29.70,10,10,6,10,3,15,0.01,4,Rain-Thunderstorm,152